This is the latest recevied weather packets stored in our database for station/object WD4DAN-13. If no packets are shown the sender has not sent any weather packets the latest 10 day(s).
| Time | Temp. | Humidity | Pressure | Rain* | Wind** | Luminosity | Snow |
|---|---|---|---|---|---|---|---|
| 1777850355 | 22.78° C | 39% | - | 0 mm | - | - | - |
| 1777850052 | 22.78° C | 39% | - | 0 mm | - | - | - |
| 1777849748 | 23.33° C | 39% | - | 0 mm | - | - | - |
| 1777849444 | 23.89° C | 39% | - | 0 mm | - | - | - |
| 1777849142 | 23.89° C | 37% | - | 0 mm | - | - | - |
| 1777848838 | 23.89° C | 37% | - | 0 mm | - | - | - |
| 1777848534 | 23.89° C | 36% | - | 0 mm | - | - | - |
| 1777848231 | 23.89° C | 37% | - | 0 mm | - | - | - |
| 1777847929 | 23.33° C | 37% | - | 0 mm | - | - | - |
| 1777847627 | 23.33° C | 37% | - | 0 mm | - | - | - |
| 1777847322 | 23.33° C | 39% | - | 0 mm | - | - | - |
| 1777847021 | 24.44° C | 36% | - | 0 mm | - | - | - |
| 1777846719 | 25° C | 41% | - | 0 mm | - | - | - |
| 1777846417 | 23.89° C | 38% | - | 0 mm | - | - | - |
| 1777846113 | 23.89° C | 36% | - | 0 mm | - | - | - |
| 1777845810 | 23.89° C | 39% | - | 0 mm | - | - | - |
| 1777845507 | 23.89° C | 39% | - | 0 mm | - | - | - |
| 1777845204 | 22.78° C | 37% | - | 0 mm | - | - | - |
| 1777844902 | 23.33° C | 38% | - | 0 mm | - | - | - |
| 1777844599 | 23.33° C | 37% | - | 0 mm | - | - | - |
| 1777844296 | 23.89° C | 41% | - | 0 mm | - | - | - |
| 1777843994 | 23.89° C | 37% | - | 0 mm | - | - | - |
| 1777843690 | 23.33° C | 36% | - | 0 mm | - | - | - |
| 1777843388 | 24.44° C | 37% | - | 0 mm | - | - | - |
| 1777843085 | 23.33° C | 36% | - | 0 mm | - | - | - |
* Rain latest hour (hover to see other rain measurements)
** Current wind speed in m/s (hover to see current wind gust speed)